When you browse on this site, cookies collect data to enhance your experience and personalize the content and advertising you see.
Visit our Privacy Policy to learn more. By continuing to use the site, you agree to this use of cookies and data.
  • In Slovakia
  • List of Countries
  • For 7 days
  • Water Temperature
  • Satellite Maps
  • Weather Map
  • Weather Widgets
  • user-avatar
    Login

    Hourly Weather Gozdowo

    Today, 16 July, Tuesday

    Time Temperature Precipitation Wind Pressure Humidity
    00:00 +14°C° 0 mm 2 mps 747 mmHg 88%
    01:00 +12°C° 0 mm 3 mps 747 mmHg 93%
    02:00 +12°C° 0 mm 3 mps 746 mmHg 93%
    03:00 +12°C° 0 mm 3 mps 746 mmHg 93%
    04:00 +12°C° 0 mm 3 mps 746 mmHg 92%
    05:00 +13°C° 0 mm 4 mps 746 mmHg 86%
    06:00 +14°C° 0 mm 4 mps 746 mmHg 80%
    07:00 +14°C° 0 mm 4 mps 746 mmHg 76%
    08:00 +14°C° 0 mm 5 mps 746 mmHg 74%
    09:00 +14°C° 0 mm 5 mps 745 mmHg 71%
    10:00 +14°C° 0 mm 5 mps 745 mmHg 69%
    11:00 +15°C° 0 mm 5 mps 745 mmHg 70%
    12:00 +16°C° 0 mm 5 mps 745 mmHg 70%
    13:00 +16°C° 0 mm 6 mps 745 mmHg 71%
    14:00 +17°C° 0.4 mm 6 mps 745 mmHg 72%
    15:00 +17°C° 0.4 mm 6 mps 745 mmHg 73%
    16:00 +19°C° 0.4 mm 6 mps 745 mmHg 75%
    17:00 +17°C° 0.6 mm 5 mps 745 mmHg 78%
    18:00 +16°C° 0.6 mm 5 mps 745 mmHg 82%
    19:00 +15°C° 0.6 mm 4 mps 744 mmHg 85%
    20:00 +14°C° 0.2 mm 4 mps 745 mmHg 88%
    21:00 +14°C° 0.2 mm 4 mps 745 mmHg 91%
    22:00 +13°C° 0.2 mm 4 mps 745 mmHg 94%
    23:00 +12°C° 0 mm 4 mps 745 mmHg 94%

    Tomorrow, 17 July, Wednesday

    Time Temperature Precipitation Wind Pressure Humidity
    00:00 +12°C° 0 mm 4 mps 745 mmHg 94%
    01:00 +12°C° 0 mm 4 mps 744 mmHg 95%
    02:00 +12°C° 0 mm 4 mps 744 mmHg 95%
    03:00 +10°C° 0 mm 5 mps 744 mmHg 95%
    04:00 +10°C° 0 mm 5 mps 744 mmHg 95%
    05:00 +11°C° 0 mm 6 mps 744 mmHg 91%
    06:00 +13°C° 0 mm 6 mps 744 mmHg 86%
    07:00 +14°C° 0 mm 7 mps 744 mmHg 81%
    08:00 +15°C° 0.2 mm 7 mps 744 mmHg 76%
    09:00 +16°C° 0.2 mm 7 mps 744 mmHg 71%
    10:00 +17°C° 0.2 mm 7 mps 744 mmHg 67%
    11:00 +19°C° 0.2 mm 6 mps 744 mmHg 64%
    12:00 +20°C° 0.2 mm 6 mps 745 mmHg 62%
    13:00 +20°C° 0.2 mm 6 mps 745 mmHg 59%
    14:00 +20°C° 0.2 mm 5 mps 745 mmHg 61%
    15:00 +20°C° 0.2 mm 5 mps 745 mmHg 63%
    16:00 +19°C° 0.2 mm 5 mps 745 mmHg 64%
    17:00 +18°C° 0.1 mm 4 mps 745 mmHg 67%
    18:00 +17°C° 0.1 mm 4 mps 745 mmHg 70%
    19:00 +16°C° 0.1 mm 3 mps 745 mmHg 73%
    20:00 +14°C° 0 mm 3 mps 745 mmHg 79%
    21:00 +14°C° 0 mm 2 mps 746 mmHg 84%
    22:00 +12°C° 0 mm 2 mps 746 mmHg 90%
    23:00 +12°C° 0 mm 2 mps 746 mmHg 91%

    Day after tomorrow, 18 July, Thursday

    Time Temperature Precipitation Wind Pressure Humidity
    00:00 +11°C° 0 mm 3 mps 746 mmHg 91%
    01:00 +11°C° 0 mm 3 mps 746 mmHg 92%
    02:00 +11°C° 0 mm 3 mps 746 mmHg 93%
    03:00 +11°C° 0 mm 3 mps 746 mmHg 95%
    04:00 +11°C° 0 mm 3 mps 746 mmHg 96%
    05:00 +12°C° 0 mm 3 mps 746 mmHg 93%
    06:00 +13°C° 0 mm 3 mps 746 mmHg 90%
    07:00 +14°C° 0 mm 3 mps 747 mmHg 87%
    08:00 +17°C° 0 mm 3 mps 747 mmHg 80%
    09:00 +19°C° 0 mm 3 mps 747 mmHg 72%
    10:00 +20°C° 0 mm 3 mps 747 mmHg 65%
    11:00 +21°C° 0 mm 3 mps 747 mmHg 61%
    12:00 +22°C° 0 mm 3 mps 747 mmHg 57%
    13:00 +24°C° 0 mm 3 mps 747 mmHg 53%
    14:00 +24°C° 0 mm 3 mps 747 mmHg 52%
    15:00 +24°C° 0 mm 3 mps 747 mmHg 52%
    16:00 +25°C° 0 mm 3 mps 746 mmHg 51%
    17:00 +22°C° 0 mm 3 mps 747 mmHg 57%
    18:00 +21°C° 0 mm 3 mps 747 mmHg 64%
    19:00 +19°C° 0 mm 2 mps 747 mmHg 71%
    20:00 +18°C° 0 mm 2 mps 747 mmHg 75%
    21:00 +16°C° 0 mm 2 mps 747 mmHg 78%
    22:00 +15°C° 0 mm 1 mps 747 mmHg 82%
    23:00 +14°C° 0 mm 1 mps 747 mmHg 84%

    19 July, Friday

    Time Temperature Precipitation Wind Pressure Humidity
    00:00 +14°C° 0 mm 1 mps 748 mmHg 86%
    01:00 +13°C° 0 mm 1 mps 748 mmHg 88%
    02:00 +13°C° 0 mm 1 mps 748 mmHg 88%
    03:00 +13°C° 0 mm 1 mps 748 mmHg 88%
    04:00 +13°C° 0 mm 1 mps 748 mmHg 88%
    05:00 +15°C° 0 mm 1 mps 748 mmHg 82%
    06:00 +18°C° 0 mm 1 mps 748 mmHg 77%
    07:00 +19°C° 0 mm 1 mps 748 mmHg 71%
    08:00 +21°C° 0 mm 1 mps 748 mmHg 66%
    09:00 +23°C° 0 mm 1 mps 748 mmHg 60%
    10:00 +24°C° 0 mm 1 mps 748 mmHg 55%
    11:00 +25°C° 0.1 mm 1 mps 748 mmHg 53%
    12:00 +25°C° 0.1 mm 1 mps 748 mmHg 50%
    13:00 +25°C° 0.1 mm 1 mps 748 mmHg 48%
    14:00 +25°C° 0 mm 1 mps 748 mmHg 49%
    15:00 +25°C° 0 mm 1 mps 747 mmHg 50%
    16:00 +25°C° 0 mm 1 mps 747 mmHg 50%
    17:00 +24°C° 0 mm 1 mps 747 mmHg 54%
    18:00 +23°C° 0 mm 1 mps 747 mmHg 57%
    19:00 +22°C° 0 mm 1 mps 747 mmHg 61%
    20:00 +21°C° 0 mm 1 mps 748 mmHg 63%
    21:00 +20°C° 0 mm 1 mps 748 mmHg 65%
    22:00 +19°C° 0 mm 1 mps 748 mmHg 67%
    23:00 +18°C° 0 mm 1 mps 748 mmHg 70%

    20 July, Saturday

    Time Temperature Precipitation Wind Pressure Humidity
    00:00 +18°C° 0 mm 1 mps 748 mmHg 73%
    01:00 +16°C° 0 mm 1 mps 748 mmHg 76%
    02:00 +16°C° 0 mm 1 mps 748 mmHg 77%
    03:00 +16°C° 0 mm 1 mps 748 mmHg 78%
    04:00 +15°C° 0 mm 1 mps 748 mmHg 79%
    05:00 +18°C° 0 mm 1 mps 749 mmHg 75%
    06:00 +19°C° 0 mm 2 mps 749 mmHg 71%
    07:00 +21°C° 0 mm 2 mps 749 mmHg 66%
    08:00 +23°C° 0 mm 2 mps 749 mmHg 61%
    09:00 +25°C° 0 mm 2 mps 749 mmHg 56%
    10:00 +26°C° 0 mm 2 mps 749 mmHg 50%
    11:00 +26°C° 0 mm 2 mps 749 mmHg 49%
    12:00 +27°C° 0 mm 2 mps 749 mmHg 47%
    13:00 +27°C° 0 mm 1 mps 749 mmHg 45%
    14:00 +27°C° 0 mm 1 mps 749 mmHg 46%
    15:00 +27°C° 0 mm 1 mps 749 mmHg 47%
    16:00 +27°C° 0 mm 1 mps 749 mmHg 48%
    17:00 +26°C° 0 mm 2 mps 749 mmHg 54%
    18:00 +25°C° 0 mm 2 mps 749 mmHg 59%
    19:00 +24°C° 0 mm 2 mps 749 mmHg 64%
    20:00 +23°C° 0 mm 2 mps 749 mmHg 66%
    21:00 +21°C° 0 mm 2 mps 750 mmHg 67%
    22:00 +20°C° 0 mm 3 mps 750 mmHg 68%
    23:00 +19°C° 0 mm 3 mps 750 mmHg 71%

    21 July, Sunday

    Time Temperature Precipitation Wind Pressure Humidity
    00:00 +19°C° 0 mm 3 mps 750 mmHg 73%
    01:00 +18°C° 0 mm 3 mps 750 mmHg 76%
    02:00 +18°C° 0 mm 3 mps 750 mmHg 79%
    03:00 +17°C° 0 mm 2 mps 750 mmHg 81%
    04:00 +17°C° 0 mm 2 mps 750 mmHg 84%
    05:00 +18°C° 0 mm 3 mps 751 mmHg 80%
    06:00 +20°C° 0 mm 3 mps 751 mmHg 76%
    07:00 +22°C° 0 mm 3 mps 751 mmHg 72%
    08:00 +24°C° 0 mm 3 mps 751 mmHg 65%
    09:00 +26°C° 0 mm 4 mps 751 mmHg 58%
    10:00 +28°C° 0 mm 4 mps 751 mmHg 51%
    11:00 +28°C° 0 mm 4 mps 751 mmHg 48%
    12:00 +29°C° 0 mm 3 mps 751 mmHg 46%
    13:00 +29°C° 0 mm 3 mps 751 mmHg 44%
    14:00 +29°C° 0 mm 3 mps 751 mmHg 44%
    15:00 +29°C° 0 mm 3 mps 751 mmHg 45%
    16:00 +29°C° 0 mm 2 mps 750 mmHg 46%
    17:00 +27°C° 0 mm 2 mps 750 mmHg 52%
    18:00 +26°C° 0 mm 2 mps 751 mmHg 58%
    19:00 +25°C° 0 mm 2 mps 751 mmHg 64%
    20:00 +24°C° 0 mm 2 mps 751 mmHg 66%
    21:00 +23°C° 0 mm 2 mps 751 mmHg 68%
    22:00 +21°C° 0 mm 2 mps 751 mmHg 69%
    23:00 +22°C° 0.5 mm 1 mps 751 mmHg 76%
    Show more